Ukiah, CA

10:59 PM PST on January 20, 2018 (GMT -0800)
Ukiah Municipal

Weather History for KUKI - September, 2014

Change the Weather History Date:

Friday, September 12, 2014

  Actual Average Record
Temperature  
Mean Temperature 76 °F 69 °F  
Max Temperature 101 °F 88 °F 108 °F (1945)
Min Temperature 51 °F 51 °F 38 °F (1915)
Degree Days  
Heating Degree Days 0 1  
Month to date heating degree days 0 2  
Since 1 July heating degree days 0 5  
Cooling Degree Days 11 5  
Month to date cooling degree days 110 66  
Year to date cooling degree days 1110 749  
Growing Degree Days 26 (Base 50)    
Moisture  
Dew Point 35 °F    
Average Humidity 35    
Maximum Humidity 62    
Minimum Humidity 8    
Precipitation  
Precipitation 0.00 in 0.02 in 0.45 in (1918)
Month to date precipitation 0.00 0.14  
Year to date precipitation 16.64 23.66  
Since 1 July precipitation 0.01  
Snow  
Snow 0.00 in - - ()
Month to date snowfall 0.0  
Since 1 July snowfall 0.0  
Since 1 September snowfall 0.0  
Snow Depth 0.00 in    
Sea Level Pressure  
Sea Level Pressure 29.84 in    
Wind  
Wind Speed 2 mph (NW)    
Max Wind Speed 16 mph    
Max Gust Speed 26 mph    
Visibility 10 miles    
Events      
T = Trace of Precipitation, MM = Missing Value Source: NWS Daily Summary

Daily Weather History Graph

Daily Weather History Graph

Search for Another Location

Airport or City:

Trip Planner

Search our weather history database for the weather conditions in past years. The results will help you decide how hot, cold, wet, or windy it might be!

Date:

Astronomy

Sep. 12, 2014 Rise Set
Actual Time 6:51 AM PDT 7:25 PM PDT
Civil Twilight 6:24 AM PDT 7:52 PM PDT
Nautical Twilight 5:52 AM PDT 8:24 PM PDT
Astronomical Twilight 5:20 AM PDT 8:56 PM PDT
Moon 9:52 PM PDT (9/12) 10:59 AM PDT (9/12)
Length of Visible Light 13h 28m
Length of Day
12h 34m
Waning Gibbous, 82% of the Moon is Illuminated
Sep 12
Waning Gibbous
Sep 15
Last Quarter
Sep 23
New
Oct 1
First Quarter
Oct 8
Full

Hourly Weather History & Observations

Time (PDT) Temp. Dew Point Humidity Pressure Visibility Wind Dir Wind Speed Gust Speed Precip Events Conditions
12:56 AM 64.9 °F 37.9 °F 37% 29.86 in 10.0 mi Calm Calm - N/A   Clear
1:56 AM 57.9 °F 44.1 °F 60% 29.85 in 10.0 mi Calm Calm - N/A   Clear
2:56 AM 57.0 °F 42.1 °F 57% 29.86 in 10.0 mi Calm Calm - N/A   Clear
3:56 AM 55.0 °F 42.1 °F 62% 29.86 in 10.0 mi Calm Calm - N/A   Clear
4:56 AM 55.0 °F 41.0 °F 59% 29.86 in 10.0 mi Calm Calm - N/A   Clear
5:56 AM 53.1 °F 39.9 °F 61% 29.87 in 10.0 mi Calm Calm - N/A   Clear
6:56 AM 55.9 °F 37.0 °F 49% 29.88 in 10.0 mi Calm Calm - N/A   Clear
7:56 AM 57.0 °F 39.0 °F 51% 29.89 in 10.0 mi Calm Calm - N/A   Clear
8:56 AM 64.0 °F 35.1 °F 34% 29.89 in 10.0 mi Calm Calm - N/A   Clear
9:56 AM 72.0 °F 35.1 °F 26% 29.89 in 10.0 mi Calm Calm - N/A   Clear
10:56 AM 79.0 °F 37.9 °F 23% 29.88 in 10.0 mi Calm Calm - N/A   Clear
11:56 AM 86.0 °F 36.0 °F 17% 29.86 in 10.0 mi Calm Calm - N/A   Clear
12:56 PM 93.0 °F 24.1 °F 8% 29.83 in 10.0 mi Variable 3.5 mph - N/A   Clear
1:56 PM 99.0 °F 28.0 °F 8% 29.80 in 10.0 mi Variable 3.5 mph - N/A   Clear
2:56 PM 100.0 °F 32.0 °F 9% 29.79 in 10.0 mi Variable 6.9 mph - N/A   Clear
3:56 PM 99.0 °F 35.1 °F 11% 29.78 in 10.0 mi West 5.8 mph - N/A   Clear
4:56 PM 97.0 °F 30.9 °F 10% 29.78 in 10.0 mi WNW 8.1 mph - N/A   Clear
5:56 PM 95.0 °F 28.0 °F 9% 29.78 in 10.0 mi WNW 9.2 mph - N/A   Clear
6:56 PM 90.0 °F 30.0 °F 12% 29.79 in 10.0 mi NNE 10.4 mph - N/A   Clear
7:56 PM 84.9 °F 28.9 °F 13% 29.80 in 10.0 mi WNW 4.6 mph - N/A   Clear
8:56 PM 82.0 °F 30.0 °F 15% 29.81 in 10.0 mi Calm Calm - N/A   Clear
9:56 PM 75.9 °F 32.0 °F 20% 29.82 in 10.0 mi Calm Calm - N/A   Clear
10:56 PM 71.1 °F 36.0 °F 28% 29.82 in 10.0 mi Calm Calm - N/A   Clear
11:56 PM 66.9 °F 36.0 °F 32% 29.82 in 10.0 mi Calm Calm - N/A   Clear